RH
14 15 15 16 16 16 17 19 18 17 17 20 22 19 19 18 19 19 18 18 15 16 21 24 24 26 27 28 26 28 28 29 36 46 71 54 51 52 51 53 69 64 59 59 54
16 15 15 16 17 17 18 18 17 17 21 23 21 20 19 18 20 20 22 20 18 18 22 25 30 29 27 28 28 27 26 29 47 67 57 54 52 53 55 53 58 67 60 47 52
17 17 16 17 18 18 19 17 16 20 24 22 20 21 20 22 28 30 23 20 19 21 29 32 33 32 30 27 29 25 33 40 40 60 61 61 56 56 67 64 58 62 52 43 44
19 18 18 18 18 18 20 17 16 22 25 23 21 20 20 20 40 34 25 19 21 25 30 32 31 31 32 29 28 32 38 33 39 60 49 49 52 55 73 81 56 49 47 44 44
21 20 19 18 19 19 20 16 17 22 23 23 21 18 20 30 35 31 26 23 24 27 26 27 30 32 29 28 27 36 38 35 49 55 45 47 50 63 69 44 45 36 38 36 39
23 22 20 19 20 21 20 16 19 22 22 23 21 18 22 35 34 29 23 22 24 25 25 28 32 31 32 37 41 41 39 42 45 47 62 45 42 68 45 43 37 33 37 36 36
26 23 21 20 21 22 18 17 20 22 22 23 19 17 24 33 34 30 26 26 29 32 33 32 33 31 40 43 44 44 42 42 39 50 40 46 33 38 31 47 41 41 46 42 41
28 24 22 22 22 21 17 19 22 23 23 21 20 21 27 34 34 31 32 34 36 35 31 34 36 38 40 45 39 40 39 39 38 46 50 37 40 24 29 48 50 53 53 52 51
29 25 23 23 23 20 17 20 22 22 22 22 23 28 37 35 32 31 34 39 43 40 38 34 39 44 45 45 40 41 34 36 30 39 39 44 43 20 28 46 57 55 52 51 50
29 26 24 23 23 19 18 21 22 23 25 25 27 35 35 39 37 33 32 43 46 46 43 43 45 47 46 43 39 34 31 24 30 33 37 26 35 22 33 45 58 60 58 56 50
29 27 26 24 22 19 20 22 25 29 23 29 33 38 40 37 34 35 35 46 47 52 53 49 51 47 43 43 39 35 33 24 28 27 30 28 31 27 35 46 50 52 54 57 54
28 28 28 25 22 19 20 27 38 46 37 28 33 36 39 35 37 39 36 49 51 52 52 51 49 48 42 40 35 31 30 35 29 18 28 28 36 34 39 46 48 47 51 55 53
29 30 28 25 22 19 19 27 37 38 44 40 39 38 38 32 38 39 39 50 53 51 53 51 51 39 42 39 37 36 32 43 37 29 26 39 44 34 34 38 40 44 50 53 53
29 32 29 24 21 22 26 31 38 41 48 40 35 31 28 30 36 42 39 50 46 51 51 51 48 44 42 43 41 41 34 41 37 38 36 31 35 46 34 29 34 34 41 45 49
30 34 30 25 27 27 40 38 42 45 55 41 35 31 30 29 34 38 36 46 48 46 47 50 45 43 44 48 34 56 38 36 35 33 47 40 31 48 53 37 31 34 35 38 42
32 37 32 25 22 32 40 43 43 52 54 31 29 26 29 31 31 42 34 39 48 45 49 51 40 38 45 34 34 32 36 34 35 33 40 31 43 42 54 44 38 34 36 42 46
33 39 33 24 33 37 45 45 45 53 35 27 25 26 28 27 30 33 31 34 41 45 44 50 45 41 37 36 31 34 42 44 43 47 43 42 37 32 34 45 43 36 36 43 45
35 40 33 26 38 41 50 45 54 34 35 23 24 24 32 31 28 28 39 38 38 49 47 47 48 33 31 39 46 38 43 48 41 41 35 39 31 27 31 24 24 37 39 43 43
37 43 34 26 35 46 52 51 41 33 34 21 24 27 33 29 31 26 31 37 40 32 47 43 49 45 34 32 31 42 35 37 43 38 34 22 25 34 27 22 27 38 39 43 42
41 44 33 33 39 52 51 41 41 37 32 22 25 27 37 31 24 24 34 44 41 30 29 43 47 39 32 29 28 28 37 34 29 39 38 28 30 25 31 21 25 35 36 39 41
50 50 33 37 45 59 47 32 40 32 28 24 27 28 35 36 29 30 40 38 30 32 32 37 35 45 35 29 34 38 28 27 35 44 40 30 27 30 16 21 22 27 35 34 37
53 52 43 40 51 52 44 35 36 35 32 27 28 27 26 33 28 33 31 34 30 31 28 29 30 38 35 37 29 31 39 41 36 36 32 34 23 20 15 17 22 24 30 32 36
55 56 56 48 54 56 45 41 39 39 32 28 24 28 26 26 28 27 32 35 30 27 29 28 26 36 40 32 30 29 27 30 33 34 28 38 25 22 18 17 19 22 27 31 35
62 61 59 54 52 53 54 41 36 40 34 30 26 29 29 35 35 39 39 32 31 30 30 28 29 33 41 53 48 39 31 31 31 31 26 25 22 22 21 21 20 22 24 31 33
63 51 46 53 50 67 50 38 33 37 36 32 33 28 32 35 39 41 45 41 33 34 33 34 34 36 36 42 42 34 32 30 29 25 30 22 24 20 22 22 21 24 24 26 33
61 53 53 55 47 58 49 37 35 40 36 34 33 29 33 38 36 45 48 48 44 41 39 35 38 36 37 34 35 34 29 26 25 23 25 22 23 22 23 23 23 23 26 27 32
66 60 59 63 54 48 48 41 39 46 41 41 34 38 35 40 37 40 49 48 47 48 45 40 42 39 33 34 33 36 29 26 24 23 24 26 24 26 29 27 26 27 31 30 33